Tracking 19817 objects as of 20-Aug-2019
HD Live streaming from Space Station
objects crossing your sky now

NIMBUS 5

Track NIMBUS 5 now!
10-day predictions
NIMBUS 5 is classified as:


NORAD ID: 6305
Int'l Code: 1972-097A
Perigee: 1,094.3 km
Apogee: 1,107.8 km
Inclination: 99.9 °
Period: 107.1 minutes
Semi major axis: 7472 km
RCS: 3.4528 m2 (large)
Launch date: December 11, 1972
Source: United States (US)
Launch site: AIR FORCE WESTERN TEST RANGE (AFWTR)
aabbcc
Your satellite tracking list
Your tracking list is empty




NASA's NSSDC Master Catalog

Two Line Element Set (TLE):
1  6305U 72097A   19231.74113760 -.00000047 +00000-0 -39155-5 0  9995
2  6305 099.9499 138.0177 0009049 112.7781 332.0809 13.44127783289735
Source of the keplerian elements: AFSPC